Home > Weather > Surgut > Past weeks

Flag for Russia Weather for the Past 2 Weeks in Surgut, Russia

Now
21 °F

Overcast.


Feels Like: 16 °F
Forecast: 15 / 19 °F
Wind: 3 mph from Southwest

Location: Surgut Airport

Current Time: Feb 13, 2016 at 9:55:49 AM

Latest Report: Feb 13, 2016 at 9:00 AM


Visibility: 4 mi

Pressure: 30.63 "Hg

Humidity: 93%

Dew point: 19 °F

Location of SurgutLocation

Historic Weather in Surgut — Graph

°F

Surgut Temperature Yesterday

Maximum temperature yesterday: 23 °F (at 2:30 PM)
Minimum temperature yesterday: 19 °F (at 12:00 AM)
Average temperature yesterday: 21 °F

High & Low Weather Summary for the Past Weeks

 TemperatureHumidityPressure
High27 °F (Feb 3, 1:30 PM)100% (Feb 2, 9:00 AM)30.63 "Hg (Feb 2, 9:00 AM)
Low-17 °F (Feb 10, 4:00 AM)73% (Feb 4, 5:30 PM)29.50 "Hg (Feb 6, 9:30 AM)
Average11 °F87%30.08 "Hg
* Reported Jan 29 8:00 AM — Feb 13 8:30 AM, Surgut, Weather by CustomWeather, © 2016

Note: Actual official high and low records may vary slightly from our data, if they occured in-between our weather recording intervals... More about our weather records

Advertising

Surgut Weather History for the Previous 24 Hours

 ConditionsComfort  
Time TempWeatherWind HumidityBarometerVisibility
8:30 AM
Sat, Feb 13
21 °FOvercast.3 mph93%30.63 "Hg4 mi
8:00 AM21 °FOvercast.3 mph93%30.63 "Hg4 mi
7:30 AM21 °FOvercast.3 mph93%30.63 "Hg4 mi
7:00 AM21 °FOvercast.1 mph93%30.60 "Hg4 mi
6:30 AM21 °FOvercast.3 mph93%30.60 "Hg4 mi
6:00 AM21 °FOvercast.3 mph93%30.60 "Hg4 mi
5:30 AM21 °FOvercast.3 mph93%30.60 "Hg4 mi
5:00 AM21 °FOvercast.3 mph93%30.60 "Hg4 mi
4:30 AM21 °FOvercast.No wind93%30.60 "Hg4 mi
4:00 AM21 °FOvercast.No wind93%30.60 "Hg4 mi
3:00 AM21 °FPassing clouds.1 mph93%30.57 "Hg4 mi
2:30 AM21 °FPassing clouds.1 mph93%30.57 "Hg4 mi
2:00 AM21 °FPassing clouds.1 mph93%30.57 "Hg4 mi
1:30 AM21 °FPassing clouds.1 mph93%30.57 "Hg4 mi
1:00 AM21 °FPassing clouds.1 mph100%30.57 "Hg4 mi
12:30 AM21 °FPassing clouds.1 mph100%30.57 "Hg4 mi
12:00 AM21 °FPassing clouds.3 mph93%30.57 "Hg4 mi
11:30 PM
Fri, Feb 12
21 °FPassing clouds.1 mph93%30.57 "Hg4 mi
11:00 PM21 °FPassing clouds.1 mph93%30.57 "Hg4 mi
10:30 PM23 °FOvercast.1 mph86%30.57 "Hg4 mi
10:00 PM23 °FOvercast.No wind86%30.57 "Hg4 mi
9:30 PM23 °FOvercast.No wind86%30.57 "Hg4 mi
9:00 PM21 °FOvercast.No wind93%30.57 "Hg4 mi
8:30 PM21 °FOvercast.1 mph93%30.57 "Hg4 mi
8:00 PM21 °FOvercast.1 mph93%30.57 "Hg4 mi
7:30 PM21 °FOvercast.No wind93%30.57 "Hg4 mi
7:00 PM21 °FOvercast.No wind93%30.54 "Hg4 mi
6:30 PM21 °FOvercast.No wind93%30.54 "Hg4 mi
6:00 PM21 °FOvercast.No wind93%30.54 "Hg4 mi
5:30 PM21 °FOvercast.No wind93%30.54 "Hg4 mi
5:00 PM21 °FOvercast.No wind93%30.51 "Hg4 mi
4:30 PM23 °FOvercast.No wind86%30.51 "Hg4 mi
4:00 PM21 °FOvercast.No wind86%30.51 "Hg4 mi
3:30 PM23 °FOvercast.No wind80%30.51 "Hg4 mi
3:00 PM23 °FOvercast.No wind80%30.51 "Hg4 mi
2:30 PM23 °FOvercast.No wind86%30.48 "Hg4 mi
2:00 PM21 °FOvercast.1 mph93%30.48 "Hg4 mi
1:30 PM21 °FMore clouds than sun.1 mph93%30.48 "Hg4 mi
1:00 PM21 °FMore clouds than sun.No wind93%30.48 "Hg4 mi
12:30 PM21 °FMore clouds than sun.No wind93%30.48 "Hg4 mi
12:00 PM21 °FMore clouds than sun.No wind93%30.45 "Hg4 mi
11:30 AM21 °FMostly cloudy.No wind93%30.45 "Hg4 mi
11:00 AM21 °FPartly sunny.No wind93%30.45 "Hg4 mi
10:30 AM19 °FPartly sunny.No wind100%30.45 "Hg4 mi
10:00 AM19 °FPartly sunny.No wind100%30.42 "Hg4 mi
9:30 AM19 °FPartly sunny.No wind100%30.42 "Hg4 mi
9:00 AM19 °FPartly sunny.No wind100%30.42 "Hg4 mi
Weather by CustomWeather, © 2016

See weather overviewHow to use our weather pages